Location: Staunton
(38.1490°N, 79.0720°W)
Time: 14:47:32
(UTC-04:00)

ISS - Pass Details

Date: 25 July 2017
Orbit: 400 x 408 km, 51.6° (Epoch: 21 July)

Event Time Altitude Azimuth Distance (km) Brightness Sun altitude
Rises 21:46:25 0° 249° (WSW) 2,300 0.4 -13.3°
Reaches altitude 10° 21:48:36 10° 258° (WSW) 1,444 -0.5 -13.6°
Maximum altitude 21:51:37 35° 327° (NNW) 661 -2.1 -14.1°
Drops below altitude 10° 21:54:38 10° 36° (NE) 1,450 -1.0 -14.5°
Sets 21:56:50 0° 45° (NE) 2,311 0.0 -14.8°
